This is the latest recevied weather packets stored in our database for station/object OZ1IEP-5. If no packets are shown the sender has not sent any weather packets the latest 10 day(s).
| Time | Temp. | Humidity | Pressure | Rain* | Wind** | Luminosity | Snow |
|---|---|---|---|---|---|---|---|
| 1778088006 | 11.67° C | 53% | 1009.8 hPa | 0 mm | - | 81 W/m² | - |
| 1778087406 | 11.67° C | 51% | 1009.6 hPa | 0 mm | - | 81 W/m² | - |
| 1778086808 | 11.67° C | 51% | 1009.6 hPa | 0 mm | - | 121 W/m² | - |
| 1778086206 | 11.67° C | 51% | 1009.6 hPa | 0 mm | - | 97 W/m² | - |
| 1778085606 | 11.67° C | 51% | 1009.7 hPa | 0 mm | - | 116 W/m² | - |
| 1778085009 | 11.67° C | 52% | 1009.5 hPa | 0 mm | - | 91 W/m² | - |
| 1778084405 | 11.67° C | 51% | 1009.4 hPa | 0 mm | - | 72 W/m² | - |
| 1778083805 | 11.67° C | 52% | 1009.4 hPa | 0 mm | - | 60 W/m² | - |
| 1778083208 | 11.67° C | 51% | 1009.4 hPa | 0 mm | - | 51 W/m² | - |
| 1778082606 | 11.67° C | 52% | 1009.4 hPa | 0 mm | - | 44 W/m² | - |
| 1778082006 | 11.67° C | 52% | 1009.4 hPa | 0 mm | - | 40 W/m² | - |
| 1778081408 | 11.67° C | 51% | 1009.4 hPa | 0 mm | - | 46 W/m² | - |
| 1778080806 | 12.22° C | 54% | 1009.4 hPa | 0 mm | - | 30 W/m² | - |
| 1778080207 | 12.78° C | 57% | 1009.3 hPa | 0 mm | - | 37 W/m² | - |
| 1778079608 | 12.78° C | 59% | 1009.3 hPa | 0 mm | - | 49 W/m² | - |
| 1778079006 | 12.78° C | 58% | 1009.3 hPa | 0 mm | - | 54 W/m² | - |
| 1778078405 | 13.33° C | 59% | 1009.2 hPa | 0 mm | - | 54 W/m² | - |
| 1778077808 | 13.33° C | 57% | 1009.1 hPa | 0 mm | - | 76 W/m² | - |
| 1778077206 | 13.33° C | 61% | 1009 hPa | 0 mm | - | 120 W/m² | - |
| 1778076606 | 13.33° C | 62% | 1009 hPa | 0 mm | - | 132 W/m² | - |
| 1778076008 | 13.33° C | 57% | 1009 hPa | 0 mm | - | 135 W/m² | - |
| 1778075405 | 13.33° C | 60% | 1008.8 hPa | 0 mm | - | 179 W/m² | - |
| 1778074805 | 13.33° C | 59% | 1008.8 hPa | 0 mm | - | 195 W/m² | - |
| 1778074208 | 13.33° C | 56% | 1008.8 hPa | 0 mm | - | 156 W/m² | - |
| 1778073606 | 13.33° C | 58% | 1008.7 hPa | 0 mm | - | 232 W/m² | - |
* Rain latest hour (hover to see other rain measurements)
** Current wind speed in m/s (hover to see current wind gust speed)